Zuivka

Ukraine / Donetsk Region     48˚03′34″N   38˚14′53″E
temp.,
°C
wind,
m/s
gust,
m/s
humid.,
%
clouds,
%
prec.,
mm/h
press.,
hPa
HPBL,
m
3 december, thu
thu323:00−1˚ese71183100 0.0 1030541
02:00ese71185100 0.2 1029498
05:00−1˚ese71284100 0.1 1029494
08:00−1˚ese61084100 0.1 1030565
11:00+1˚ese71082100 0.0 1030617
14:00+2˚ese71183100 0.0 1029572
17:00+1˚ese71185100 0.0 1029579
20:00+1˚ese61186100 0.0 1029608
4 december, fri
fri423:00ese61085100 0.0 1029457
02:00−1˚ese61185100 0.0 1029452
05:00−1˚ese61085100 0.0 1029447
08:00ese6108498 0.0 1029447
11:00+1˚ese61081100 0.0 1029479
14:00+1˚e61180100 0.0 1029476
17:00ese61180100 0.0 1030559
20:00e61178100 0.0 1030533
5 december, sat
sat523:00−1˚ese71271100 0.0 1030528
02:00−2˚e7127198 0.0 1031497
05:00−3˚e6137658 0.0 1031450
08:00−3˚e7137035 0.0 1031468
11:00e712550 0.0 1031570
14:00+1˚e812420 0.0 1031661
17:00−3˚e715540 0.0 1032507
20:00−4˚e714520 0.0 1033492
6 december, sun
sun623:00−5˚e714530 0.0 1033456
02:00−5˚e613540 0.0 1033429
05:00−6˚e713550 0.0 1033407
08:00−6˚e714520 0.0 1034439
11:00−2˚e712370 0.0 1034525
14:00−1˚e712370 0.0 1033577
17:00−4˚e614520 0.0 1033443
20:00−5˚e613680 0.0 1034484
7 december, mon
mon723:00−6˚e713650 0.0 1034442
02:00−6˚e714680 0.0 1034455
05:00−6˚e714700 0.0 1034452
08:00−6˚e714700 0.0 1034461
11:00−3˚e814560 0.0 1034586
14:00−1˚e814530 0.0 1033674
17:00−4˚e716640 0.0 1033559
20:00−5˚ese614630 0.0 1033535